Regional Weather Roundup
Issued by NWS Midland/Odessa, TX

Home | Current Version | Previous Version | Text Only | Print | Product List | Glossary On
Versions: 1 2 3 4 5 6 7 8 9 10 11 12 13 14 15 16 17 18 19 20 21 22 23 24 25 26 27 28 29 30 31 32 33 34 35 36 37 38 39 40 41 42 43 44 45 46 47 48 49 50
000
ASUS44 KMAF 231110
RWRMAF
MIDLAND AREA WEATHER ROUNDUP
NATIONAL WEATHER SERVICE MIDLAND TX
600 AM CDT THU MAY 23 2019

...IN SOUTHWEST TEXAS AND SOUTHEAST NEW MEXICO...

CITY           SKY/WX    TMP DP  RH WIND       PRES   REMARKS
ALPINE         CLEAR     70  62  77 S7        29.94R
ANDREWS        CLOUDY    75  69  79 S16G23    29.83R
ARTESIA        CLEAR     61  25  25 W12       29.79
BIG SPRING     MOCLDY    73  69  86 S13G18    29.85R
CARLSBAD       CLEAR     60  38  43 NW6       29.76R
DRYDEN           N/A     76  72  87 E16G31    29.79R
FORT STOCKTON  CLEAR     75  69  81 SE18G30   29.78R
GUAD PASS      CLEAR     67  20  16 SW8       29.91S
HOBBS          CLOUDY    72  68  88 S23G30    29.81R
LAMESA         NOT AVBL
MARFA          CLEAR     60  56  86 SE3       29.93R
MIDLAND AIRPK    N/A     77  71  82 S15G22    29.82S
MIDLAND INTL   CLOUDY    76  71  85 S14       29.81S
ODESSA         CLOUDY    75  68  78 S16G23    29.81R HAZE
PECOS          CLEAR     72  65  78 E9        29.75S
PRESIDIO       FAIR      77  31  19 CALM      29.79S
SEMINOLE       MOCLDY    74  67  78 SE17      29.85F
SNYDER         CLOUDY    73  72  97 S14       29.83S
WINK           CLEAR     76  69  79 SE14      29.76S
$$
...OTHER STATIONS IN TEXAS...

CITY           SKY/WX    TMP DP  RH WIND       PRES   REMARKS
ABILENE        PTCLDY    74  70  87 S18       29.83S FOG
AMARILLO       CLOUDY    70  65  84 S16       29.87S
AUSTIN         PTCLDY    77  73  87 SE9       29.91R
BROWNSVILLE    CLOUDY    81  77  88 SE17      29.87
CORPUS CHRISTI CLOUDY    81  74  79 SE16G25   29.87S
DALLAS FTW     PTCLDY    76  70  82 S16       29.91R
DEL RIO        CLOUDY    80  72  76 E15G25    29.79R
EL PASO        CLEAR     59  26  28 SE8       29.82R
HOUSTON INT    MOCLDY    79  74  84 SE12      29.96R
LUBBOCK        MOCLDY    72  68  87 SE15      29.85R
SAN ANGELO     PTCLDY    75  68  78 S13G22    29.84R HAZE
SAN ANTONIO    MOCLDY    77  71  82 SE15G22   29.92R
WACO           CLOUDY    76  71  85 S14       29.91R
WICHITA FALLS  MOCLDY    63  50  62 NE9       30.00R
$$
...OTHER LOCATIONS IN NEW MEXICO...

CITY           SKY/WX    TMP DP  RH WIND       PRES   REMARKS
ALAMOGORDO     CLEAR     55  23  28 SE8       29.84
ALBUQUERQUE    CLEAR     57  28  33 S5        29.84R
CANNON AFB     CLOUDY    69  65  88 SE12      29.86
CLOVIS         CLOUDY    70  65  84 SE16      29.87S
HOLLOMAN AFB   CLEAR     59  24  26 SE8       29.85S
ROSWELL        CLEAR     61  28  28 W8        29.78R
RUIDOSO        CLEAR     50  19  29 SE10      29.98
SANTA FE       CLEAR     52  26  36 SE12      29.90S
TRUTH OR CONSE CLEAR     57  36  45 SE5       29.82S
TUCUMCARI      CLOUDY    61  52  72 NE21      29.85R
$$



USA.gov is the U.S. government's official web portal to all federal, state and local government web resources and services.